START_TIME,STEP,MOV.,M35,t_acc.,PL05,t_acc.,PL06,t_acc.,PL07,t_acc.
1979-07-03 00:00:24.760 ,0,0,0.,4.8,5.,4.8,1.,4.8,1.,4.8
1979-07-03 00:00:29.560 ,0,0,0.,4.8,6.,4.8,0.,4.8,0.,4.8
1979-07-03 00:00:34.360 ,0,0,0.,4.8,7.,4.8,1.,4.8,1.,4.8
1979-07-03 00:00:39.160 ,0,0,0.,4.8,4.,4.8,2.,4.8,0.,4.8
1979-07-03 00:00:43.960 ,0,0,0.,4.8,5.,4.8,2.,4.8,0.,4.8
1979-07-03 00:00:48.760 ,1,0,0.,4.8,1.,4.8,0.,4.8,0.,4.8
1979-07-03 00:00:53.560 ,1,0,0.,4.8,3.,4.8,0.,4.8,2.,4.8
1979-07-03 00:00:58.360 ,1,0,0.,4.8,4.,4.8,0.,4.8,0.,4.8
1979-07-03 00:01:03.160 ,1,0,0.,4.8,5.,4.8,1.,4.8,0.,4.8
1979-07-03 00:01:07.960 ,1,0,0.,4.8,1.,4.8,2.,4.8,0.,4.8
1979-07-03 00:01:12.760 ,1,0,0.,4.8,3.,4.8,3.,4.8,0.,4.8
1979-07-03 00:01:17.560 ,1,0,0.,4.8,4.,4.8,0.,4.8,0.,4.8
1979-07-03 00:01:22.360 ,1,0,0.,4.8,4.,4.8,1.,4.8,1.,4.8
1979-07-03 00:01:27.160 ,1,0,0.,4.8,3.,4.8,1.,4.8,0.,4.8
1979-07-03 00:01:31.960 ,1,0,0.,4.8,3.,4.8,0.,4.8,0.,4.8
1979-07-03 00:01:36.760 ,2,0,0.,4.8,0.,4.8,1.,4.8,0.,4.8
1979-07-03 00:01:41.560 ,2,0,0.,4.8,1.,4.8,1.,4.8,1.,4.8
1979-07-03 00:01:46.360 ,2,0,0.,4.8,2.,4.8,0.,4.8,0.,4.8
1979-07-03 00:01:51.160 ,2,0,0.,4.8,0.,4.8,1.,4.8,0.,4.8
1979-07-03 00:01:55.960 ,2,0,0.,4.8,1.,4.8,0.,4.8,0.,4.8
1979-07-03 00:02:00.760 ,2,0,0.,4.8,1.,4.8,0.,4.8,1.,4.8
1979-07-03 00:02:05.560 ,2,0,0.,4.8,1.,4.8,0.,4.8,1.,4.8
1979-07-03 00:02:10.360 ,2,0,0.,4.8,4.,4.8,1.,4.8,0.,4.8
1979-07-03 00:02:15.160 ,2,0,0.,4.8,1.,4.8,2.,4.8,1.,4.8
1979-07-03 00:02:19.960 ,2,0,0.,4.8,1.,4.8,1.,4.8,0.,4.8
1979-07-03 00:02:24.750 ,3,0,0.,4.8,2.,4.8,0.,4.8,1.,4.8
1979-07-03 00:02:29.550 ,3,0,1.,4.8,2.,4.8,1.,4.8,0.,4.8
1979-07-03 00:02:34.350 ,3,0,0.,4.8,3.,4.8,1.,4.8,1.,4.8
1979-07-03 00:02:39.150 ,3,0,0.,4.8,1.,4.8,2.,4.8,0.,4.8
1979-07-03 00:02:43.960 ,3,0,0.,4.8,3.,4.8,0.,4.8,0.,4.8
1979-07-03 00:02:48.750 ,3,0,0.,4.8,2.,4.8,0.,4.8,0.,4.8
1979-07-03 00:02:53.550 ,3,0,0.,4.8,5.,4.8,3.,4.8,2.,4.8
1979-07-03 00:02:58.350 ,3,0,0.,4.8,2.,4.8,0.,4.8,0.,4.8
1979-07-03 00:03:03.150 ,3,0,0.,4.8,2.,4.8,1.,4.8,0.,4.8
1979-07-03 00:03:07.960 ,3,0,0.,4.8,2.,4.8,1.,4.8,1.,4.8
1979-07-03 00:03:12.750 ,4,0,0.,4.8,4.,4.8,1.,4.8,0.,4.8
1979-07-03 00:03:17.550 ,4,0,0.,4.8,2.,4.8,0.,4.8,0.,4.8
1979-07-03 00:03:22.350 ,4,0,0.,4.8,4.,4.8,1.,4.8,0.,4.8
1979-07-03 00:03:27.150 ,4,0,0.,4.8,2.,4.8,1.,4.8,0.,4.8
1979-07-03 00:03:31.960 ,4,0,0.,4.8,4.,4.8,2.,4.8,0.,4.8
1979-07-03 00:03:36.750 ,4,0,0.,4.8,2.,4.8,1.,4.8,3.,4.8
1979-07-03 00:03:41.550 ,4,0,0.,4.8,1.,4.8,0.,4.8,1.,4.8
1979-07-03 00:03:46.350 ,4,0,0.,4.8,1.,4.8,2.,4.8,1.,4.8
1979-07-03 00:03:51.150 ,4,0,0.,4.8,1.,4.8,1.,4.8,2.,4.8
1979-07-03 00:03:55.960 ,4,0,0.,4.8,0.,4.8,1.,4.8,0.,4.8
1979-07-03 00:04:00.750 ,5,0,0.,4.8,1.,4.8,1.,4.8,0.,4.8
1979-07-03 00:04:05.560 ,5,0,0.,4.8,3.,4.8,1.,4.8,0.,4.8
1979-07-03 00:04:10.360 ,5,0,0.,4.8,1.,4.8,1.,4.8,0.,4.8
1979-07-03 00:04:15.160 ,5,0,0.,4.8,1.,4.8,0.,4.8,0.,4.8
1979-07-03 00:04:19.960 ,5,0,0.,4.8,2.,4.8,1.,4.8,0.,4.8
1979-07-03 00:04:24.760 ,5,0,0.,4.8,2.,4.8,3.,4.8,2.,4.8
1979-07-03 00:04:29.560 ,5,0,0.,4.8,0.,4.8,0.,4.8,0.,4.8
1979-07-03 00:04:34.360 ,5,0,0.,4.8,1.,4.8,0.,4.8,0.,4.8
1979-07-03 00:04:39.160 ,5,0,0.,4.8,6.,4.8,1.,4.8,0.,4.8
1979-07-03 00:04:43.960 ,5,0,0.,4.8,4.,4.8,0.,4.8,1.,4.8
1979-07-03 00:04:48.760 ,6,0,0.,4.8,2.,4.8,0.,4.8,0.,4.8
1979-07-03 00:04:53.560 ,6,0,0.,4.8,1.,4.8,0.,4.8,0.,4.8
1979-07-03 00:04:58.360 ,6,0,0.,4.8,2.,4.8,2.,4.8,2.,4.8
1979-07-03 00:05:03.160 ,6,0,0.,4.8,1.,4.8,1.,4.8,0.,4.8
1979-07-03 00:05:07.960 ,6,0,0.,4.8,1.,4.8,1.,4.8,0.,4.8
1979-07-03 00:05:12.760 ,6,0,0.,4.8,2.,4.8,0.,4.8,0.,4.8
1979-07-03 00:05:17.560 ,6,0,0.,4.8,2.,4.8,0.,4.8,1.,4.8
1979-07-03 00:05:22.360 ,6,0,0.,4.8,0.,4.8,0.,4.8,0.,4.8
1979-07-03 00:05:27.160 ,6,0,0.,4.8,4.,4.8,0.,4.8,0.,4.8
1979-07-03 00:05:31.960 ,6,0,0.,4.8,1.,4.8,0.,4.8,1.,4.8
1979-07-03 00:05:36.760 ,7,0,0.,4.8,2.,4.8,0.,4.8,0.,4.8
1979-07-03 00:05:41.560 ,7,0,0.,4.8,3.,4.8,0.,4.8,1.,4.8
1979-07-03 00:05:46.360 ,7,0,0.,4.8,0.,4.8,0.,4.8,1.,4.8
1979-07-03 00:05:51.160 ,7,0,0.,4.8,0.,4.8,0.,4.8,0.,4.8
1979-07-03 00:05:55.960 ,7,0,0.,4.8,1.,4.8,0.,4.8,0.,4.8
1979-07-03 00:06:00.760 ,7,0,0.,4.8,1.,4.8,0.,4.8,0.,4.8
1979-07-03 00:06:05.560 ,7,0,0.,4.8,1.,4.8,0.,4.8,0.,4.8
1979-07-03 00:06:10.360 ,7,0,0.,4.8,0.,4.8,0.,4.8,1.,4.8
1979-07-03 00:06:15.160 ,7,0,0.,4.8,0.,4.8,0.,4.8,0.,4.8
1979-07-03 00:06:19.960 ,7,0,0.,4.8,1.,4.8,1.,4.8,0.,4.8
1979-07-03 00:06:24.760 ,7,0,0.,4.8,0.,4.8,1.,4.8,0.,4.8
1979-07-03 00:06:29.560 ,7,0,0.,4.8,1.,4.8,0.,4.8,0.,4.8
1979-07-03 00:06:34.360 ,7,0,0.,4.8,1.,4.8,0.,4.8,0.,4.8
1979-07-03 00:06:39.160 ,7,0,0.,4.8,2.,4.8,1.,4.8,0.,4.8
1979-07-03 00:06:43.960 ,7,0,0.,4.8,0.,4.8,0.,4.8,0.,4.8
1979-07-03 00:06:48.760 ,7,0,0.,4.8,0.,4.8,0.,4.8,0.,4.8
1979-07-03 00:06:53.560 ,7,0,0.,4.8,1.,4.8,0.,4.8,0.,4.8
1979-07-03 00:06:58.360 ,7,0,0.,4.8,0.,4.8,0.,4.8,0.,4.8
1979-07-03 00:07:03.160 ,7,0,0.,4.8,0.,4.8,0.,4.8,1.,4.8
1979-07-03 00:07:07.960 ,7,0,0.,4.8,0.,4.8,0.,4.8,0.,4.8
1979-07-03 00:07:12.760 ,6,0,0.,4.8,0.,4.8,1.,4.8,0.,4.8
1979-07-03 00:07:17.560 ,6,0,0.,4.8,0.,4.8,0.,4.8,1.,4.8
1979-07-03 00:07:22.360 ,6,0,0.,4.8,4.,4.8,0.,4.8,0.,4.8
1979-07-03 00:07:27.160 ,6,0,0.,4.8,3.,4.8,1.,4.8,0.,4.8
1979-07-03 00:07:31.960 ,6,0,0.,4.8,4.,4.8,0.,4.8,1.,4.8
1979-07-03 00:07:36.760 ,6,0,0.,4.8,2.,4.8,3.,4.8,1.,4.8
1979-07-03 00:07:41.560 ,6,0,0.,4.8,4.,4.8,1.,4.8,0.,4.8
1979-07-03 00:07:46.360 ,6,0,0.,4.8,2.,4.8,0.,4.8,1.,4.8
1979-07-03 00:07:51.160 ,6,0,0.,4.8,6.,4.8,1.,4.8,1.,4.8
1979-07-03 00:07:55.960 ,6,0,0.,4.8,1.,4.8,0.,4.8,0.,4.8
1979-07-03 00:08:00.760 ,5,0,0.,4.8,2.,4.8,0.,4.8,1.,4.8
1979-07-03 00:08:05.560 ,5,0,0.,4.8,3.,4.8,1.,4.8,1.,4.8
1979-07-03 00:08:10.360 ,5,0,0.,4.8,4.,4.8,1.,4.8,0.,4.8
1979-07-03 00:08:15.160 ,5,0,0.,4.8,4.,4.8,1.,4.8,0.,4.8
1979-07-03 00:08:19.960 ,5,0,0.,4.8,2.,4.8,0.,4.8,2.,4.8
1979-07-03 00:08:24.760 ,5,0,0.,4.8,5.,4.8,1.,4.8,0.,4.8
1979-07-03 00:08:29.560 ,5,0,0.,4.8,0.,4.8,2.,4.8,0.,4.8
1979-07-03 00:08:34.360 ,5,0,0.,4.8,2.,4.8,2.,4.8,0.,4.8
1979-07-03 00:08:39.160 ,5,0,0.,4.8,2.,4.8,0.,4.8,0.,4.8
1979-07-03 00:08:43.960 ,5,0,0.,4.8,3.,4.8,0.,4.8,0.,4.8
1979-07-03 00:08:48.760 ,4,0,0.,4.8,5.,4.8,1.,4.8,0.,4.8
1979-07-03 00:08:53.550 ,4,0,0.,4.8,3.,4.8,0.,4.8,1.,4.8
1979-07-03 00:08:58.350 ,4,0,0.,4.8,5.,4.8,0.,4.8,0.,4.8
1979-07-03 00:09:03.150 ,4,0,0.,4.8,2.,4.8,0.,4.8,0.,4.8
1979-07-03 00:09:07.960 ,4,0,0.,4.8,1.,4.8,1.,4.8,0.,4.8
1979-07-03 00:09:12.760 ,4,0,0.,4.8,0.,4.8,0.,4.8,2.,4.8
1979-07-03 00:09:17.550 ,4,0,0.,4.8,2.,4.8,1.,4.8,2.,4.8
1979-07-03 00:09:22.350 ,4,0,0.,4.8,2.,4.8,0.,4.8,2.,4.8
1979-07-03 00:09:27.150 ,4,0,0.,4.8,2.,4.8,0.,4.8,0.,4.8
1979-07-03 00:09:31.960 ,4,0,0.,4.8,1.,4.8,0.,4.8,0.,4.8
1979-07-03 00:09:36.760 ,3,0,0.,4.8,1.,4.8,0.,4.8,2.,4.8
1979-07-03 00:09:41.550 ,3,0,0.,4.8,3.,4.8,0.,4.8,0.,4.8
1979-07-03 00:09:46.350 ,3,0,0.,4.8,0.,4.8,0.,4.8,0.,4.8
1979-07-03 00:09:51.150 ,3,0,0.,4.8,0.,4.8,0.,4.8,0.,4.8
1979-07-03 00:09:55.960 ,3,0,0.,4.8,2.,4.8,0.,4.8,2.,4.8
1979-07-03 00:10:00.760 ,3,0,0.,4.8,3.,4.8,0.,4.8,0.,4.8
1979-07-03 00:10:05.550 ,3,0,0.,4.8,5.,4.8,0.,4.8,1.,4.8
1979-07-03 00:10:10.350 ,3,0,0.,4.8,1.,4.8,2.,4.8,1.,4.8
1979-07-03 00:10:15.150 ,3,0,0.,4.8,2.,4.8,2.,4.8,0.,4.8
1979-07-03 00:10:19.960 ,3,0,0.,4.8,1.,4.8,4.,4.8,0.,4.8
1979-07-03 00:10:24.750 ,2,0,0.,4.8,2.,4.8,0.,4.8,0.,4.8
1979-07-03 00:10:29.550 ,2,0,0.,4.8,5.,4.8,0.,4.8,0.,4.8
1979-07-03 00:10:34.350 ,2,0,0.,4.8,3.,4.8,1.,4.8,0.,4.8
1979-07-03 00:10:39.150 ,2,0,0.,4.8,2.,4.8,0.,4.8,1.,4.8
1979-07-03 00:10:43.950 ,2,0,0.,4.8,3.,4.8,0.,4.8,0.,4.8
1979-07-03 00:10:48.750 ,2,0,0.,4.8,0.,4.8,0.,4.8,0.,4.8
1979-07-03 00:10:53.550 ,2,0,0.,4.8,4.,4.8,1.,4.8,1.,4.8
1979-07-03 00:10:58.350 ,2,0,0.,4.8,0.,4.8,1.,4.8,1.,4.8
1979-07-03 00:11:03.150 ,2,0,0.,4.8,2.,4.8,0.,4.8,1.,4.8
1979-07-03 00:11:07.950 ,2,0,0.,4.8,3.,4.8,0.,4.8,0.,4.8
1979-07-03 00:11:12.750 ,1,0,0.,4.8,1.,4.8,2.,4.8,1.,4.8
1979-07-03 00:11:17.550 ,1,0,0.,4.8,2.,4.8,0.,4.8,1.,4.8
1979-07-03 00:11:22.350 ,1,0,0.,4.8,5.,4.8,1.,4.8,2.,4.8
1979-07-03 00:11:27.150 ,1,0,0.,4.8,1.,4.8,1.,4.8,3.,4.8
1979-07-03 00:11:31.950 ,1,0,0.,4.8,3.,4.8,2.,4.8,0.,4.8
1979-07-03 00:11:36.750 ,1,0,0.,4.8,2.,4.8,0.,4.8,2.,4.8
1979-07-03 00:11:41.550 ,1,0,0.,4.8,4.,4.8,2.,4.8,0.,4.8
1979-07-03 00:11:46.350 ,1,0,0.,4.8,3.,4.8,0.,4.8,0.,4.8
1979-07-03 00:11:51.150 ,1,0,0.,4.8,2.,4.8,2.,4.8,0.,4.8
1979-07-03 00:11:55.950 ,1,0,0.,4.8,4.,4.8,1.,4.8,0.,4.8
1979-07-03 00:12:00.750 ,0,0,0.,4.8,1.,4.8,0.,4.8,0.,4.8
1979-07-03 00:12:05.550 ,0,0,0.,4.8,2.,4.8,1.,4.8,0.,4.8
1979-07-03 00:12:10.350 ,0,0,0.,4.8,2.,4.8,3.,4.8,1.,4.8
1979-07-03 00:12:15.150 ,0,0,0.,4.8,6.,4.8,0.,4.8,0.,4.8
1979-07-03 00:12:19.950 ,0,0,0.,4.8,5.,4.8,0.,4.8,0.,4.8
1979-07-03 00:12:24.750 ,0,0,0.,4.8,2.,4.8,1.,4.8,1.,4.8
1979-07-03 00:12:29.550 ,0,0,0.,4.8,4.,4.8,1.,4.8,0.,4.8
1979-07-03 00:12:34.350 ,0,0,0.,4.8,1.,4.8,1.,4.8,1.,4.8
1979-07-03 00:12:39.150 ,0,0,0.,4.8,3.,4.8,1.,4.8,1.,4.8
1979-07-03 00:12:43.950 ,0,0,0.,4.8,0.,4.8,1.,4.8,1.,4.8
1979-07-03 00:12:48.750 ,0,0,0.,4.8,2.,4.8,0.,4.8,1.,4.8
1979-07-03 00:12:53.550 ,0,0,0.,4.8,2.,4.8,2.,4.8,1.,4.8
1979-07-03 00:12:58.350 ,0,0,0.,4.8,6.,4.8,0.,4.8,0.,4.8
1979-07-03 00:13:03.150 ,0,0,0.,4.8,3.,4.8,0.,4.8,0.,4.8
1979-07-03 00:13:07.950 ,0,0,0.,4.8,0.,4.8,1.,4.8,1.,4.8
1979-07-03 00:13:12.750 ,0,0,0.,4.8,3.,4.8,2.,4.8,1.,4.8
1979-07-03 00:13:17.550 ,0,0,0.,4.8,3.,4.8,0.,4.8,0.,4.8
1979-07-03 00:13:22.350 ,0,0,0.,4.8,3.,4.8,1.,4.8,0.,4.8
1979-07-03 00:13:27.150 ,0,0,0.,4.8,5.,4.8,2.,4.8,1.,4.8
1979-07-03 00:13:31.950 ,0,0,0.,4.8,4.,4.8,1.,4.8,1.,4.8
1979-07-03 00:13:36.750 ,1,0,0.,4.8,4.,4.8,0.,4.8,2.,4.8
1979-07-03 00:13:41.550 ,1,0,0.,4.8,0.,4.8,3.,4.8,0.,4.8
1979-07-03 00:13:46.350 ,1,0,0.,4.8,2.,4.8,0.,4.8,1.,4.8
1979-07-03 00:13:51.150 ,1,0,0.,4.8,4.,4.8,0.,4.8,0.,4.8
1979-07-03 00:13:55.950 ,1,0,0.,4.8,5.,4.8,1.,4.8,1.,4.8
1979-07-03 00:14:00.750 ,1,0,0.,4.8,1.,4.8,0.,4.8,0.,4.8
1979-07-03 00:14:05.550 ,1,0,0.,4.8,1.,4.8,0.,4.8,0.,4.8
1979-07-03 00:14:10.350 ,1,0,0.,4.8,0.,4.8,1.,4.8,1.,4.8
1979-07-03 00:14:15.150 ,1,0,0.,4.8,3.,4.8,0.,4.8,0.,4.8
1979-07-03 00:14:19.950 ,1,0,0.,4.8,2.,4.8,0.,4.8,1.,4.8
1979-07-03 00:14:24.750 ,2,0,0.,4.8,3.,4.8,0.,4.8,0.,4.8
1979-07-03 00:14:29.550 ,2,0,0.,4.8,3.,4.8,0.,4.8,0.,4.8
1979-07-03 00:14:34.350 ,2,0,0.,4.8,0.,4.8,0.,4.8,1.,4.8
1979-07-03 00:14:39.150 ,2,0,0.,4.8,2.,4.8,0.,4.8,0.,4.8
1979-07-03 00:14:43.950 ,2,0,0.,4.8,1.,4.8,2.,4.8,0.,4.8
1979-07-03 00:14:48.750 ,2,0,0.,4.8,4.,4.8,0.,4.8,1.,4.8
1979-07-03 00:14:53.550 ,2,0,0.,4.8,3.,4.8,0.,4.8,0.,4.8
1979-07-03 00:14:58.350 ,2,0,0.,4.8,0.,4.8,0.,4.8,0.,4.8
1979-07-03 00:15:03.150 ,2,0,0.,4.8,1.,4.8,0.,4.8,0.,4.8
1979-07-03 00:15:07.950 ,2,0,0.,4.8,2.,4.8,3.,4.8,1.,4.8
1979-07-03 00:15:12.750 ,3,0,0.,4.8,0.,4.8,0.,4.8,2.,4.8
1979-07-03 00:15:17.550 ,3,0,0.,4.8,2.,4.8,0.,4.8,0.,4.8
1979-07-03 00:15:22.350 ,3,0,0.,4.8,2.,4.8,2.,4.8,0.,4.8
1979-07-03 00:15:27.150 ,3,0,0.,4.8,1.,4.8,1.,4.8,2.,4.8
1979-07-03 00:15:31.950 ,3,0,0.,4.8,5.,4.8,2.,4.8,0.,4.8
1979-07-03 00:15:36.750 ,3,0,0.,4.8,2.,4.8,1.,4.8,2.,4.8
1979-07-03 00:15:41.550 ,3,0,0.,4.8,5.,4.8,1.,4.8,0.,4.8
1979-07-03 00:15:46.350 ,3,0,0.,4.8,4.,4.8,1.,4.8,1.,4.8
1979-07-03 00:15:51.150 ,3,0,0.,4.8,2.,4.8,1.,4.8,2.,4.8
1979-07-03 00:15:55.950 ,3,0,0.,4.8,5.,4.8,2.,4.8,0.,4.8
1979-07-03 00:16:00.750 ,4,0,0.,4.8,2.,4.8,1.,4.8,0.,4.8
1979-07-03 00:16:05.550 ,4,0,0.,4.8,7.,4.8,1.,4.8,0.,4.8
1979-07-03 00:16:10.350 ,4,0,0.,4.8,1.,4.8,2.,4.8,0.,4.8
1979-07-03 00:16:15.150 ,4,0,0.,4.8,6.,4.8,0.,4.8,1.,4.8
1979-07-03 00:16:19.950 ,4,0,0.,4.8,0.,4.8,1.,4.8,0.,4.8
1979-07-03 00:16:24.750 ,4,0,0.,4.8,2.,4.8,0.,4.8,2.,4.8
1979-07-03 00:16:29.550 ,4,0,0.,4.8,5.,4.8,2.,4.8,1.,4.8
1979-07-03 00:16:34.350 ,4,0,0.,4.8,3.,4.8,0.,4.8,0.,4.8
1979-07-03 00:16:39.150 ,4,0,0.,4.8,2.,4.8,0.,4.8,2.,4.8
1979-07-03 00:16:43.950 ,4,0,0.,4.8,7.,4.8,0.,4.8,1.,4.8
1979-07-03 00:16:48.750 ,5,0,0.,4.8,1.,4.8,0.,4.8,0.,4.8
1979-07-03 00:16:53.550 ,5,0,0.,4.8,3.,4.8,0.,4.8,1.,4.8
1979-07-03 00:16:58.350 ,5,0,0.,4.8,2.,4.8,0.,4.8,0.,4.8
1979-07-03 00:17:03.150 ,5,0,0.,4.8,0.,4.8,0.,4.8,0.,4.8
1979-07-03 00:17:07.950 ,5,0,0.,4.8,4.,4.8,0.,4.8,2.,4.8
1979-07-03 00:17:12.750 ,5,0,0.,4.8,5.,4.8,2.,4.8,0.,4.8
1979-07-03 00:17:17.550 ,5,0,0.,4.8,3.,4.8,3.,4.8,1.,4.8
1979-07-03 00:17:22.350 ,5,0,0.,4.8,0.,4.8,1.,4.8,0.,4.8
1979-07-03 00:17:27.150 ,5,0,0.,4.8,0.,4.8,3.,4.8,0.,4.8
1979-07-03 00:17:31.950 ,5,0,0.,4.8,2.,4.8,0.,4.8,0.,4.8
1979-07-03 00:17:36.750 ,6,0,0.,4.8,1.,4.8,2.,4.8,0.,4.8
1979-07-03 00:17:41.550 ,6,0,0.,4.8,1.,4.8,1.,4.8,1.,4.8
1979-07-03 00:17:46.350 ,6,0,0.,4.8,3.,4.8,2.,4.8,2.,4.8
1979-07-03 00:17:51.150 ,6,0,0.,4.8,2.,4.8,1.,4.8,1.,4.8
1979-07-03 00:17:55.950 ,6,0,0.,4.8,5.,4.8,0.,4.8,2.,4.8
1979-07-03 00:18:00.750 ,6,0,0.,4.8,2.,4.8,1.,4.8,1.,4.8
1979-07-03 00:18:05.550 ,6,0,0.,4.8,0.,4.8,1.,4.8,0.,4.8
1979-07-03 00:18:10.350 ,6,0,0.,4.8,1.,4.8,0.,4.8,0.,4.8
1979-07-03 00:18:15.150 ,6,0,0.,4.8,1.,4.8,0.,4.8,0.,4.8
1979-07-03 00:18:19.950 ,6,0,0.,4.8,2.,4.8,1.,4.8,0.,4.8
1979-07-03 00:18:24.750 ,7,0,0.,4.8,4.,4.8,1.,4.8,2.,4.8
1979-07-03 00:18:29.550 ,7,0,0.,4.8,1.,4.8,0.,4.8,0.,4.8
1979-07-03 00:18:34.350 ,7,0,0.,4.8,0.,4.8,0.,4.8,0.,4.8
1979-07-03 00:18:39.150 ,7,0,0.,4.8,1.,4.8,0.,4.8,0.,4.8
1979-07-03 00:18:43.950 ,7,0,0.,4.8,0.,4.8,0.,4.8,0.,4.8
1979-07-03 00:18:48.750 ,7,0,0.,4.8,1.,4.8,0.,4.8,0.,4.8
1979-07-03 00:18:53.550 ,7,0,0.,4.8,1.,4.8,0.,4.8,0.,4.8
1979-07-03 00:18:58.350 ,7,0,0.,4.8,2.,4.8,0.,4.8,0.,4.8
1979-07-03 00:19:03.150 ,7,0,0.,4.8,1.,4.8,0.,4.8,0.,4.8
1979-07-03 00:19:07.950 ,7,0,0.,4.8,1.,4.8,1.,4.8,0.,4.8
1979-07-03 00:19:12.750 ,3,1,0.,4.8,1.,4.8,0.,4.8,1.,4.8
1979-07-03 00:19:17.550 ,3,1,0.,4.8,0.,4.8,1.,4.8,0.,4.8
1979-07-03 00:19:22.350 ,3,1,0.,4.8,2.,4.8,0.,4.8,2.,4.8
1979-07-03 00:19:27.150 ,3,1,0.,4.8,5.,4.8,1.,4.8,2.,4.8
1979-07-03 00:19:31.950 ,3,1,0.,4.8,4.,4.8,0.,4.8,3.,4.8
1979-07-03 00:19:36.750 ,0,1,0.,4.8,1.,4.8,0.,4.8,3.,4.8
1979-07-03 00:19:41.550 ,0,1,0.,4.8,4.,4.8,0.,4.8,0.,4.8
1979-07-03 00:19:46.350 ,0,1,0.,4.8,1.,4.8,0.,4.8,1.,4.8
1979-07-03 00:19:51.150 ,0,1,0.,4.8,1.,4.8,0.,4.8,0.,4.8
1979-07-03 00:19:55.950 ,0,1,0.,4.8,2.,4.8,0.,4.8,0.,4.8
1979-07-03 00:20:00.750 ,4,1,0.,4.8,2.,4.8,1.,4.8,0.,4.8
1979-07-03 00:20:05.550 ,4,1,0.,4.8,2.,4.8,1.,4.8,1.,4.8
1979-07-03 00:20:10.350 ,4,1,0.,4.8,1.,4.8,2.,4.8,2.,4.8
1979-07-03 00:20:15.150 ,4,1,0.,4.8,2.,4.8,0.,4.8,0.,4.8
1979-07-03 00:20:19.950 ,4,1,0.,4.8,2.,4.8,1.,4.8,1.,4.8
1979-07-03 00:20:24.750 ,7,1,0.,4.8,0.,4.8,1.,4.8,0.,4.8
1979-07-03 00:20:29.550 ,7,1,0.,4.8,6.,4.8,1.,4.8,0.,4.8
1979-07-03 00:20:34.350 ,7,1,0.,4.8,2.,4.8,0.,4.8,2.,4.8
1979-07-03 00:20:39.150 ,7,1,0.,4.8,0.,4.8,1.,4.8,1.,4.8
1979-07-03 00:20:43.950 ,7,1,0.,4.8,0.,4.8,0.,4.8,0.,4.8
1979-07-03 00:20:48.750 ,3,1,0.,4.8,0.,4.8,0.,4.8,0.,4.8
1979-07-03 00:20:53.550 ,3,1,0.,4.8,5.,4.8,1.,4.8,1.,4.8
1979-07-03 00:20:58.350 ,3,1,0.,4.8,3.,4.8,0.,4.8,0.,4.8
1979-07-03 00:21:03.150 ,3,1,0.,4.8,3.,4.8,2.,4.8,0.,4.8
1979-07-03 00:21:07.950 ,3,1,0.,4.8,3.,4.8,1.,4.8,0.,4.8
1979-07-03 00:21:12.750 ,0,1,0.,4.8,3.,4.8,2.,4.8,0.,4.8
1979-07-03 00:21:17.550 ,0,1,0.,4.8,1.,4.8,0.,4.8,0.,4.8
1979-07-03 00:21:22.350 ,0,1,0.,4.8,0.,4.8,0.,4.8,1.,4.8
1979-07-03 00:21:27.150 ,0,1,0.,4.8,0.,4.8,2.,4.8,0.,4.8
1979-07-03 00:21:31.950 ,0,1,0.,4.8,1.,4.8,1.,4.8,2.,4.8
1979-07-03 00:21:36.750 ,4,1,0.,4.8,4.,4.8,1.,4.8,1.,4.8
1979-07-03 00:21:41.550 ,4,1,0.,4.8,4.,4.8,0.,4.8,0.,4.8
1979-07-03 00:21:46.350 ,4,1,0.,4.8,2.,4.8,0.,4.8,0.,4.8
1979-07-03 00:21:51.150 ,4,1,0.,4.8,1.,4.8,1.,4.8,0.,4.8
1979-07-03 00:21:55.950 ,4,1,0.,4.8,0.,4.8,1.,4.8,0.,4.8
1979-07-03 00:22:00.750 ,7,1,0.,4.8,1.,4.8,0.,4.8,0.,4.8
1979-07-03 00:22:05.550 ,7,1,0.,4.8,3.,4.8,1.,4.8,0.,4.8
1979-07-03 00:22:10.350 ,7,1,0.,4.8,2.,4.8,0.,4.8,0.,4.8
1979-07-03 00:22:15.150 ,7,1,0.,4.8,1.,4.8,0.,4.8,1.,4.8
1979-07-03 00:22:19.950 ,7,1,0.,4.8,2.,4.8,0.,4.8,0.,4.8
1979-07-03 00:22:24.750 ,3,1,0.,4.8,0.,4.8,0.,4.8,0.,4.8
1979-07-03 00:22:29.550 ,3,1,0.,4.8,2.,4.8,0.,4.8,0.,4.8
1979-07-03 00:22:34.350 ,3,1,0.,4.8,6.,4.8,1.,4.8,0.,4.8
1979-07-03 00:22:39.150 ,3,1,0.,4.8,7.,4.8,2.,4.8,2.,4.8
1979-07-03 00:22:43.950 ,3,1,0.,4.8,5.,4.8,2.,4.8,0.,4.8
1979-07-03 00:22:48.750 ,0,1,0.,4.8,2.,4.8,0.,4.8,0.,4.8
1979-07-03 00:22:53.550 ,0,1,0.,4.8,1.,4.8,2.,4.8,2.,4.8
1979-07-03 00:22:58.350 ,0,1,0.,4.8,4.,4.8,1.,4.8,2.,4.8
1979-07-03 00:23:03.150 ,0,1,0.,4.8,1.,4.8,1.,4.8,1.,4.8
1979-07-03 00:23:07.950 ,0,1,0.,4.8,1.,4.8,1.,4.8,0.,4.8
1979-07-03 00:23:12.750 ,4,1,0.,4.8,2.,4.8,2.,4.8,1.,4.8
1979-07-03 00:23:17.550 ,4,1,0.,4.8,1.,4.8,1.,4.8,1.,4.8
1979-07-03 00:23:22.350 ,4,1,0.,4.8,4.,4.8,1.,4.8,0.,4.8
1979-07-03 00:23:27.150 ,4,1,0.,4.8,2.,4.8,0.,4.8,0.,4.8
1979-07-03 00:23:31.950 ,4,1,0.,4.8,4.,4.8,2.,4.8,1.,4.8
1979-07-03 00:23:36.750 ,7,1,0.,4.8,5.,4.8,2.,4.8,0.,4.8
1979-07-03 00:23:41.550 ,7,1,0.,4.8,5.,4.8,0.,4.8,0.,4.8
1979-07-03 00:23:46.350 ,7,1,0.,4.8,2.,4.8,4.,4.8,0.,4.8
1979-07-03 00:23:51.150 ,7,1,0.,4.8,0.,4.8,0.,4.8,1.,4.8
1979-07-03 00:23:55.950 ,7,1,0.,4.8,0.,4.8,0.,4.8,0.,4.8
1979-07-03 00:24:00.750 ,3,1,0.,4.8,3.,4.8,0.,4.8,0.,4.8
1979-07-03 00:24:05.550 ,3,1,0.,4.8,4.,4.8,1.,4.8,1.,4.8
1979-07-03 00:24:10.350 ,3,1,0.,4.8,3.,4.8,0.,4.8,0.,4.8
1979-07-03 00:24:15.150 ,3,1,0.,4.8,4.,4.8,1.,4.8,3.,4.8
1979-07-03 00:24:19.950 ,3,1,0.,4.8,8.,4.8,2.,4.8,0.,4.8
1979-07-03 00:24:24.750 ,0,1,0.,4.8,2.,4.8,0.,4.8,1.,4.8
1979-07-03 00:24:29.550 ,0,1,0.,4.8,0.,4.8,5.,4.8,0.,4.8
1979-07-03 00:24:34.350 ,0,1,0.,4.8,4.,4.8,0.,4.8,1.,4.8
1979-07-03 00:24:39.150 ,0,1,0.,4.8,3.,4.8,2.,4.8,0.,4.8
1979-07-03 00:24:43.950 ,0,1,0.,4.8,5.,4.8,1.,4.8,0.,4.8
1979-07-03 00:24:48.750 ,4,1,0.,4.8,1.,4.8,0.,4.8,1.,4.8
1979-07-03 00:24:53.550 ,4,1,0.,4.8,3.,4.8,0.,4.8,1.,4.8
1979-07-03 00:24:58.350 ,4,1,0.,4.8,1.,4.8,1.,4.8,1.,4.8
1979-07-03 00:25:03.150 ,4,1,0.,4.8,3.,4.8,1.,4.8,1.,4.8
1979-07-03 00:25:07.950 ,4,1,0.,4.8,4.,4.8,1.,4.8,1.,4.8
1979-07-03 00:25:12.750 ,7,1,0.,4.8,7.,4.8,2.,4.8,0.,4.8
1979-07-03 00:25:17.550 ,7,1,0.,4.8,6.,4.8,2.,4.8,0.,4.8
1979-07-03 00:25:22.350 ,7,1,0.,4.8,2.,4.8,2.,4.8,0.,4.8
1979-07-03 00:25:27.150 ,7,1,0.,4.8,1.,4.8,1.,4.8,0.,4.8
1979-07-03 00:25:31.950 ,7,1,0.,4.8,0.,4.8,0.,4.8,0.,4.8
1979-07-03 00:25:36.750 ,3,1,0.,4.8,0.,4.8,1.,4.8,1.,4.8
1979-07-03 00:25:41.550 ,3,1,0.,4.8,6.,4.8,1.,4.8,1.,4.8
1979-07-03 00:25:46.350 ,3,1,0.,4.8,7.,4.8,1.,4.8,0.,4.8
1979-07-03 00:25:51.150 ,3,1,0.,4.8,3.,4.8,3.,4.8,0.,4.8
1979-07-03 00:25:55.950 ,3,1,0.,4.8,4.,4.8,2.,4.8,0.,4.8
1979-07-03 00:26:00.750 ,0,1,0.,4.8,3.,4.8,1.,4.8,1.,4.8
1979-07-03 00:26:05.550 ,0,1,0.,4.8,0.,4.8,1.,4.8,0.,4.8
1979-07-03 00:26:10.350 ,0,1,0.,4.8,3.,4.8,3.,4.8,0.,4.8
1979-07-03 00:26:15.150 ,0,1,0.,4.8,1.,4.8,1.,4.8,0.,4.8
1979-07-03 00:26:19.950 ,0,1,0.,4.8,3.,4.8,0.,4.8,0.,4.8
1979-07-03 00:26:24.750 ,4,1,0.,4.8,3.,4.8,0.,4.8,0.,4.8
1979-07-03 00:26:29.550 ,4,1,0.,4.8,2.,4.8,2.,4.8,1.,4.8
1979-07-03 00:26:34.350 ,4,1,0.,4.8,2.,4.8,2.,4.8,0.,4.8
1979-07-03 00:26:39.150 ,4,1,0.,4.8,5.,4.8,2.,4.8,1.,4.8
1979-07-03 00:26:43.950 ,4,1,0.,4.8,8.,4.8,3.,4.8,1.,4.8
1979-07-03 00:26:48.750 ,7,1,0.,4.8,6.,4.8,2.,4.8,1.,4.8
1979-07-03 00:26:53.550 ,7,1,0.,4.8,5.,4.8,1.,4.8,0.,4.8
1979-07-03 00:26:58.350 ,7,1,0.,4.8,2.,4.8,1.,4.8,1.,4.8
1979-07-03 00:27:03.150 ,7,1,0.,4.8,1.,4.8,1.,4.8,1.,4.8
1979-07-03 00:27:07.950 ,7,1,0.,4.8,1.,4.8,0.,4.8,0.,4.8
1979-07-03 00:27:12.750 ,3,1,0.,4.8,1.,4.8,0.,4.8,1.,4.8
1979-07-03 00:27:17.550 ,3,1,0.,4.8,8.,4.8,2.,4.8,0.,4.8
1979-07-03 00:27:22.350 ,3,1,0.,4.8,3.,4.8,1.,4.8,1.,4.8
1979-07-03 00:27:27.150 ,3,1,0.,4.8,4.,4.8,1.,4.8,0.,4.8
1979-07-03 00:27:31.950 ,3,1,0.,4.8,4.,4.8,1.,4.8,2.,4.8
1979-07-03 00:27:36.750 ,0,1,0.,4.8,0.,4.8,4.,4.8,1.,4.8
1979-07-03 00:27:41.550 ,0,1,0.,4.8,0.,4.8,1.,4.8,0.,4.8
1979-07-03 00:27:46.350 ,0,1,0.,4.8,0.,4.8,0.,4.8,0.,4.8
1979-07-03 00:27:51.150 ,0,1,0.,4.8,1.,4.8,1.,4.8,0.,4.8
1979-07-03 00:27:55.950 ,0,1,0.,4.8,3.,4.8,1.,4.8,1.,4.8
1979-07-03 00:28:00.750 ,4,1,0.,4.8,0.,4.8,1.,4.8,0.,4.8
1979-07-03 00:28:05.550 ,4,1,0.,4.8,4.,4.8,0.,4.8,0.,4.8
1979-07-03 00:28:10.350 ,4,1,0.,4.8,1.,4.8,2.,4.8,0.,4.8
1979-07-03 00:28:15.150 ,4,1,0.,4.8,4.,4.8,2.,4.8,0.,4.8
1979-07-03 00:28:19.950 ,4,1,0.,4.8,2.,4.8,0.,4.8,2.,4.8
1979-07-03 00:28:24.750 ,7,1,0.,4.8,6.,4.8,0.,4.8,2.,4.8
1979-07-03 00:28:29.550 ,7,1,0.,4.8,5.,4.8,2.,4.8,3.,4.8
1979-07-03 00:28:34.350 ,7,1,0.,4.8,3.,4.8,1.,4.8,1.,4.8
1979-07-03 00:28:39.150 ,7,1,0.,4.8,2.,4.8,1.,4.8,1.,4.8
1979-07-03 00:28:43.950 ,7,1,0.,4.8,0.,4.8,0.,4.8,0.,4.8
1979-07-03 00:28:48.750 ,3,1,0.,4.8,1.,4.8,0.,4.8,1.,4.8
1979-07-03 00:28:53.550 ,3,1,0.,4.8,5.,4.8,1.,4.8,1.,4.8
1979-07-03 00:28:58.350 ,3,1,0.,4.8,2.,4.8,3.,4.8,1.,4.8
1979-07-03 00:29:03.150 ,3,1,0.,4.8,2.,4.8,1.,4.8,0.,4.8
1979-07-03 00:29:07.950 ,3,1,0.,4.8,4.,4.8,2.,4.8,2.,4.8
1979-07-03 00:29:12.750 ,0,1,0.,4.8,3.,4.8,1.,4.8,0.,4.8
1979-07-03 00:29:17.550 ,0,1,0.,4.8,0.,4.8,0.,4.8,1.,4.8
1979-07-03 00:29:22.350 ,0,1,0.,4.8,1.,4.8,0.,4.8,0.,4.8
1979-07-03 00:29:27.150 ,0,1,0.,4.8,4.,4.8,2.,4.8,1.,4.8
1979-07-03 00:29:31.950 ,0,1,0.,4.8,0.,4.8,0.,4.8,1.,4.8
1979-07-03 00:29:36.750 ,0,0,0.,4.8,1.,4.8,1.,4.8,0.,4.8
1979-07-03 00:29:41.550 ,0,0,0.,4.8,3.,4.8,1.,4.8,1.,4.8
1979-07-03 00:29:46.350 ,0,0,0.,4.8,1.,4.8,1.,4.8,1.,4.8
1979-07-03 00:29:51.150 ,0,0,0.,4.8,1.,4.8,0.,4.8,0.,4.8
1979-07-03 00:29:55.950 ,0,0,0.,4.8,2.,4.8,0.,4.8,0.,4.8
1979-07-03 00:30:00.750 ,0,0,0.,4.8,4.,4.8,1.,4.8,0.,4.8
1979-07-03 00:30:05.550 ,0,0,0.,4.8,4.,4.8,3.,4.8,0.,4.8
1979-07-03 00:30:10.350 ,0,0,0.,4.8,7.,4.8,0.,4.8,2.,4.8
1979-07-03 00:30:15.150 ,0,0,0.,4.8,2.,4.8,1.,4.8,1.,4.8
1979-07-03 00:30:19.950 ,0,0,0.,4.8,1.,4.8,0.,4.8,0.,4.8
1979-07-03 00:30:24.750 ,5,0,0.,4.8,3.,4.8,0.,4.8,0.,4.8
1979-07-03 00:30:29.550 ,5,0,0.,4.8,6.,4.8,3.,4.8,0.,4.8
1979-07-03 00:30:34.350 ,5,0,0.,4.8,4.,4.8,0.,4.8,0.,4.8
1979-07-03 00:30:39.150 ,5,0,0.,4.8,5.,4.8,1.,4.8,3.,4.8
1979-07-03 00:30:43.950 ,5,0,0.,4.8,5.,4.8,1.,4.8,0.,4.8
1979-07-03 00:30:48.750 ,5,0,0.,4.8,4.,4.8,1.,4.8,0.,4.8
1979-07-03 00:30:53.550 ,5,0,0.,4.8,7.,4.8,3.,4.8,1.,4.8
1979-07-03 00:30:58.350 ,5,0,0.,4.8,7.,4.8,1.,4.8,1.,4.8
1979-07-03 00:31:03.150 ,5,0,0.,4.8,4.,4.8,1.,4.8,0.,4.8
1979-07-03 00:31:07.950 ,5,0,0.,4.8,10.,4.8,2.,4.8,1.,4.8
1979-07-03 00:32:00.750 ,0,0,0.,4.8,3.,4.8,4.,4.8,1.,4.8
1979-07-03 00:32:05.550 ,0,0,0.,4.8,6.,4.8,0.,4.8,2.,4.8
1979-07-03 00:32:10.350 ,0,0,0.,4.8,3.,4.8,1.,4.8,1.,4.8
1979-07-03 00:32:15.150 ,0,0,0.,4.8,1.,4.8,0.,4.8,0.,4.8
1979-07-03 00:32:19.950 ,0,0,0.,4.8,4.,4.8,2.,4.8,0.,4.8
1979-07-03 00:32:24.750 ,0,0,0.,4.8,0.,4.8,3.,4.8,1.,4.8
1979-07-03 00:32:29.550 ,0,0,0.,4.8,4.,4.8,0.,4.8,1.,4.8
1979-07-03 00:32:34.350 ,0,0,0.,4.8,3.,4.8,1.,4.8,1.,4.8
1979-07-03 00:32:39.150 ,0,0,0.,4.8,0.,4.8,0.,4.8,1.,4.8
1979-07-03 00:32:43.950 ,0,0,0.,4.8,4.,4.8,0.,4.8,0.,4.8
1979-07-03 00:32:48.750 ,2,0,0.,4.8,2.,4.8,2.,4.8,2.,4.8
1979-07-03 00:32:53.550 ,2,0,0.,4.8,4.,4.8,3.,4.8,2.,4.8
1979-07-03 00:32:58.350 ,2,0,0.,4.8,4.,4.8,1.,4.8,1.,4.8
1979-07-03 00:33:03.150 ,2,0,0.,4.8,2.,4.8,1.,4.8,0.,4.8
1979-07-03 00:33:07.950 ,2,0,0.,4.8,1.,4.8,1.,4.8,0.,4.8
1979-07-03 00:33:12.750 ,2,0,0.,4.8,0.,4.8,2.,4.8,0.,4.8
1979-07-03 00:33:17.550 ,2,0,0.,4.8,0.,4.8,1.,4.8,0.,4.8
1979-07-03 00:33:22.350 ,2,0,0.,4.8,2.,4.8,1.,4.8,0.,4.8
1979-07-03 00:33:27.150 ,2,0,0.,4.8,3.,4.8,1.,4.8,0.,4.8
1979-07-03 00:33:31.950 ,2,0,0.,4.8,3.,4.8,1.,4.8,1.,4.8
1979-07-03 00:33:36.750 ,1,0,0.,4.8,2.,4.8,1.,4.8,1.,4.8
1979-07-03 00:33:41.550 ,1,0,0.,4.8,1.,4.8,0.,4.8,0.,4.8
1979-07-03 00:33:46.350 ,1,0,0.,4.8,2.,4.8,0.,4.8,0.,4.8
1979-07-03 00:33:51.150 ,1,0,0.,4.8,2.,4.8,0.,4.8,0.,4.8
1979-07-03 00:33:55.950 ,1,0,0.,4.8,3.,4.8,0.,4.8,1.,4.8
1979-07-03 00:34:00.750 ,1,0,0.,4.8,2.,4.8,3.,4.8,1.,4.8
1979-07-03 00:34:05.550 ,1,0,0.,4.8,1.,4.8,0.,4.8,0.,4.8